| time (UTC) | temp F | wind direction | speed knots | gust knots | rain 1hr in | rain 24hr in | rain mn in | humidity % | barometer mb |
| 20260503022050 | 49 | 0 | 0.0 | 0.0 | 0.00 | 0.20 | 0.20 | 97 | 1014.6 |
| 20260503021559 | 49 | 0 | 0.0 | 0.0 | 0.00 | 0.20 | 0.20 | 97 | 1014.5 |
| 20260503021050 | 49 | 0 | 0.0 | 0.0 | 0.00 | 0.20 | 0.20 | 97 | 1014.5 |
| 20260503020551 | 49 | 0 | 0.0 | 0.0 | 0.00 | 0.20 | 0.20 | 97 | 1014.7 |
| 20260503020059 | 49 | 0 | 0.0 | 0.0 | 0.00 | 0.20 | 0.20 | 97 | 1014.5 |
| 20260503015547 | 49 | 0 | 0.0 | 0.0 | 0.00 | 0.20 | 0.20 | 97 | 1014.6 |
| 20260503015047 | 49 | 0 | 0.0 | 0.0 | 0.00 | 0.20 | 0.20 | 97 | 1014.5 |
| 20260503014549 | 49 | 0 | 0.0 | 0.0 | 0.00 | 0.20 | 0.20 | 96 | 1014.7 |
| 20260503014051 | 49 | 0 | 0.0 | 0.0 | 0.00 | 0.20 | 0.20 | 97 | 1014.6 |
| 20260503013551 | 49 | 0 | 0.0 | 0.0 | 0.00 | 0.20 | 0.20 | 97 | 1014.5 |
| 20260503013052 | 49 | 0 | 0.0 | 0.0 | 0.00 | 0.20 | 0.20 | 97 | 1014.4 |
| 20260503012551 | 49 | 0 | 0.0 | 0.0 | 0.00 | 0.20 | 0.20 | 96 | 1014.3 |
| 20260503012048 | 49 | 0 | 0.0 | 0.0 | 0.00 | 0.20 | 0.20 | 96 | 1014.2 |
| 20260503011554 | 49 | 0 | 0.0 | 0.0 | 0.00 | 0.20 | 0.20 | 96 | 1014.2 |
| 20260503011048 | 49 | 0 | 0.0 | 0.0 | 0.00 | 0.20 | 0.20 | 96 | 1014.1 |
| 20260503010550 | 49 | 0 | 0.0 | 0.0 | 0.00 | 0.20 | 0.20 | 95 | 1014.1 |
| 20260503005550 | 50 | 0 | 0.0 | 0.0 | 0.00 | 0.20 | 0.20 | 95 | 1013.9 |
| 20260503005048 | 50 | 0 | 0.0 | 0.0 | 0.00 | 0.20 | 0.20 | 94 | 1013.8 |
| 20260503004607 | 50 | 0 | 0.0 | 0.0 | 0.00 | 0.20 | 0.20 | 93 | 1013.8 |
| 20260503004050 | 51 | 0 | 0.0 | 0.0 | 0.00 | 0.20 | 0.20 | 93 | 1013.6 |
| 20260503003548 | 51 | 0 | 0.0 | 0.0 | 0.00 | 0.20 | 0.20 | 93 | 1013.6 |
| 20260503003112 | 51 | 0 | 0.0 | 0.0 | 0.00 | 0.20 | 0.20 | 93 | 1013.5 |
| 20260503002549 | 52 | 0 | 0.0 | 0.0 | 0.00 | 0.20 | 0.20 | 92 | 1013.4 |
| 20260503002048 | 52 | 0 | 0.0 | 0.0 | 0.00 | 0.20 | 0.20 | 92 | 1013.4 |
| 20260503001617 | 53 | 0 | 0.0 | 0.0 | 0.00 | 0.20 | 0.20 | 92 | 1013.4 |
| 20260503001051 | 53 | 0 | 0.0 | 0.0 | 0.00 | 0.20 | 0.20 | 91 | 1013.3 |
| 20260503000551 | 53 | 0 | 0.0 | 0.0 | 0.00 | 0.20 | 0.20 | 91 | 1013.3 |
| 20260503000059 | 53 | 0 | 0.0 | 0.0 | 0.00 | 0.20 | 0.20 | 91 | 1013.2 |
| 20260502235548 | 54 | 0 | 0.0 | 0.0 | 0.00 | 0.20 | 0.20 | 90 | 1013.1 |
| 20260502235048 | 54 | 0 | 0.0 | 0.0 | 0.00 | 0.20 | 0.20 | 90 | 1013.1 |
| 20260502234601 | 54 | 0 | 0.0 | 0.0 | 0.00 | 0.20 | 0.20 | 90 | 1012.9 |
| 20260502234049 | 54 | 0 | 0.0 | 0.0 | 0.00 | 0.20 | 0.20 | 90 | 1012.9 |
| 20260502233551 | 54 | 0 | 0.0 | 0.0 | 0.00 | 0.20 | 0.20 | 90 | 1013.0 |
| 20260502233102 | 54 | 0 | 0.0 | 0.0 | 0.00 | 0.20 | 0.20 | 89 | 1013.1 |
| 20260502232548 | 55 | 0 | 0.0 | 0.0 | 0.00 | 0.20 | 0.20 | 89 | 1013.0 |
| 20260502232048 | 55 | 0 | 0.0 | 0.0 | 0.00 | 0.20 | 0.20 | 89 | 1012.9 |
| 20260502231556 | 55 | 0 | 0.0 | 0.0 | 0.00 | 0.20 | 0.20 | 89 | 1012.9 |
| 20260502231050 | 55 | 0 | 0.0 | 0.0 | 0.00 | 0.20 | 0.20 | 88 | 1012.7 |
| 20260502230548 | 55 | 0 | 0.0 | 0.0 | 0.00 | 0.20 | 0.20 | 87 | 1012.7 |
| 20260502230055 | 55 | 0 | 0.0 | 0.0 | 0.00 | 0.20 | 0.20 | 87 | 1012.7 |
| 20260502225550 | 55 | 0 | 0.0 | 0.0 | 0.00 | 0.20 | 0.20 | 88 | 1012.7 |
| 20260502225047 | 55 | 0 | 0.0 | 0.0 | 0.00 | 0.20 | 0.20 | 87 | 1012.7 |
| 20260502224555 | 55 | 0 | 0.0 | 0.0 | 0.00 | 0.20 | 0.20 | 87 | 1012.7 |
| 20260502224048 | 55 | 0 | 0.0 | 0.0 | 0.00 | 0.20 | 0.20 | 87 | 1012.7 |
| 20260502223547 | 55 | 0 | 0.0 | 0.0 | 0.00 | 0.20 | 0.20 | 86 | 1012.5 |
| 20260502223051 | 56 | 0 | 0.0 | 0.0 | 0.00 | 0.20 | 0.20 | 86 | 1012.7 |
| 20260502222551 | 56 | 0 | 0.0 | 0.0 | 0.00 | 0.20 | 0.20 | 86 | 1012.8 |
| 20260502222050 | 56 | 0 | 0.0 | 0.0 | 0.00 | 0.20 | 0.20 | 85 | 1012.7 |
| 20260502221551 | 56 | 0 | 0.0 | 0.0 | 0.00 | 0.20 | 0.20 | 85 | 1012.8 |
| 20260502221048 | 56 | 0 | 0.0 | 0.0 | 0.00 | 0.20 | 0.20 | 85 | 1012.6 |
| 20260502220548 | 56 | 0 | 0.0 | 0.0 | 0.00 | 0.20 | 0.20 | 84 | 1012.4 |
| 20260502220054 | 56 | 0 | 0.0 | 0.0 | 0.00 | 0.20 | 0.20 | 85 | 1012.5 |
| 20260502215548 | 57 | 0 | 0.0 | 0.0 | 0.00 | 0.20 | 0.20 | 84 | 1012.3 |
| 20260502215050 | 57 | 0 | 0.0 | 0.0 | 0.00 | 0.20 | 0.20 | 85 | 1012.3 |
| 20260502214548 | 56 | 0 | 0.0 | 0.0 | 0.00 | 0.20 | 0.20 | 85 | 1012.3 |
| 20260502214048 | 57 | 0 | 0.0 | 0.9 | 0.00 | 0.20 | 0.20 | 84 | 1012.3 |
| 20260502213547 | 57 | 0 | 0.0 | 0.9 | 0.00 | 0.20 | 0.20 | 84 | 1012.4 |
| 20260502213108 | 57 | 0 | 0.0 | 1.7 | 0.00 | 0.20 | 0.20 | 84 | 1012.3 |
| 20260502212550 | 57 | 0 | 0.0 | 1.7 | 0.00 | 0.20 | 0.20 | 83 | 1012.3 |
| 20260502212048 | 57 | 0 | 0.0 | 0.0 | 0.00 | 0.20 | 0.20 | 83 | 1012.3 |
| 20260502211554 | 57 | 0 | 0.0 | 0.0 | 0.00 | 0.20 | 0.20 | 84 | 1012.3 |
| 20260502211049 | 57 | 0 | 0.0 | 0.0 | 0.00 | 0.20 | 0.20 | 85 | 1012.2 |
| 20260502210547 | 57 | 0 | 0.0 | 0.0 | 0.00 | 0.20 | 0.20 | 86 | 1012.2 |
| 20260502210054 | 56 | 0 | 0.0 | 0.0 | 0.00 | 0.20 | 0.20 | 86 | 1012.3 |
| 20260502205547 | 56 | 0 | 0.0 | 0.9 | 0.00 | 0.20 | 0.20 | 85 | 1012.4 |
| 20260502205047 | 56 | 0 | 0.0 | 0.9 | 0.00 | 0.20 | 0.20 | 84 | 1012.4 |
| 20260502204602 | 56 | 234 | 0.0 | 0.0 | 0.00 | 0.20 | 0.20 | 85 | 1012.4 |
| 20260502204054 | 56 | 0 | 0.0 | 0.0 | 0.00 | 0.20 | 0.20 | 86 | 1012.5 |
| 20260502203547 | 56 | 0 | 0.0 | 0.0 | 0.00 | 0.20 | 0.20 | 85 | 1012.5 |
| 20260502203058 | 56 | 0 | 0.0 | 0.0 | 0.00 | 0.20 | 0.20 | 85 | 1012.5 |
| 20260502202548 | 57 | 0 | 0.0 | 0.9 | 0.00 | 0.20 | 0.20 | 85 | 1012.4 |
| 20260502202048 | 57 | 0 | 0.0 | 0.9 | 0.00 | 0.20 | 0.20 | 84 | 1012.5 |
| 20260502201556 | 56 | 113 | 0.0 | 4.3 | 0.00 | 0.20 | 0.20 | 85 | 1012.5 |
| 20260502201048 | 56 | 96 | 0.0 | 4.3 | 0.00 | 0.20 | 0.20 | 86 | 1012.4 |
| 20260502200548 | 56 | 0 | 0.0 | 4.3 | 0.00 | 0.20 | 0.20 | 84 | 1012.4 |
| 20260502200115 | 56 | 0 | 0.0 | 0.9 | 0.00 | 0.20 | 0.20 | 85 | 1012.4 |
| 20260502195550 | 56 | 0 | 0.0 | 0.9 | 0.00 | 0.21 | 0.20 | 86 | 1012.5 |
| 20260502195050 | 56 | 0 | 0.0 | 0.9 | 0.00 | 0.21 | 0.20 | 87 | 1012.5 |
| 20260502194606 | 56 | 0 | 0.0 | 0.9 | 0.00 | 0.21 | 0.20 | 86 | 1012.7 |
| 20260502194050 | 56 | 0 | 0.0 | 4.3 | 0.00 | 0.21 | 0.20 | 85 | 1012.9 |
| 20260502193549 | 56 | 0 | 0.0 | 4.3 | 0.00 | 0.21 | 0.20 | 85 | 1012.8 |
| 20260502193057 | 56 | 119 | 0.0 | 0.0 | 0.00 | 0.21 | 0.20 | 85 | 1013.0 |
| 20260502192551 | 56 | 0 | 0.0 | 3.5 | 0.00 | 0.21 | 0.20 | 85 | 1013.1 |
| 20260502192053 | 56 | 0 | 0.0 | 3.5 | 0.00 | 0.21 | 0.20 | 85 | 1013.1 |
| 20260502191559 | 56 | 178 | 0.0 | 0.9 | 0.00 | 0.21 | 0.20 | 85 | 1013.1 |
| 20260502191048 | 56 | 0 | 0.0 | 0.9 | 0.00 | 0.21 | 0.20 | 87 | 1013.0 |
| 20260502190550 | 56 | 0 | 0.0 | 0.9 | 0.00 | 0.21 | 0.20 | 87 | 1013.1 |
| 20260502190051 | 56 | 0 | 0.0 | 0.9 | 0.00 | 0.21 | 0.20 | 88 | 1013.2 |
| 20260502185550 | 56 | 0 | 0.0 | 2.6 | 0.00 | 0.21 | 0.20 | 88 | 1013.1 |
| 20260502185048 | 56 | 0 | 0.0 | 2.6 | 0.00 | 0.21 | 0.20 | 89 | 1013.1 |
| 20260502184554 | 55 | 130 | 0.0 | 5.2 | 0.00 | 0.21 | 0.20 | 89 | 1013.2 |
| 20260502184051 | 55 | 0 | 0.9 | 5.2 | 0.00 | 0.21 | 0.20 | 90 | 1013.3 |
| 20260502183551 | 55 | 0 | 0.0 | 2.6 | 0.00 | 0.21 | 0.20 | 90 | 1013.3 |
| 20260502183059 | 55 | 0 | 0.0 | 2.6 | 0.00 | 0.21 | 0.20 | 91 | 1013.3 |
| 20260502182551 | 54 | 267 | 0.9 | 2.6 | 0.00 | 0.21 | 0.20 | 92 | 1013.4 |
| 20260502182049 | 54 | 0 | 0.0 | 2.6 | 0.00 | 0.21 | 0.20 | 94 | 1013.5 |
| 20260502181557 | 53 | 102 | 0.0 | 2.6 | 0.00 | 0.21 | 0.20 | 93 | 1013.5 |
| 20260502181049 | 53 | 229 | 0.0 | 1.7 | 0.00 | 0.21 | 0.20 | 93 | 1013.8 |
| 20260502180550 | 52 | 0 | 0.0 | 1.7 | 0.00 | 0.21 | 0.20 | 94 | 1013.8 |
| 20260502170105 | 52 | 0 | 0.0 | 2.6 | 0.02 | 0.21 | 0.20 | 96 | 1014.1 |
| 20260502164049 | 52 | 47 | 0.0 | 2.6 | 0.03 | 0.21 | 0.20 | 96 | 1014.4 |
| 20260502163550 | 52 | 0 | 0.0 | 0.9 | 0.03 | 0.21 | 0.20 | 96 | 1014.3 |
| 20260502163101 | 52 | 153 | 0.0 | 0.0 | 0.02 | 0.20 | 0.19 | 96 | 1014.5 |
| 20260502162550 | 52 | 0 | 0.0 | 0.0 | 0.02 | 0.20 | 0.19 | 96 | 1014.5 |
| 20260502162048 | 52 | 0 | 0.0 | 0.9 | 0.02 | 0.20 | 0.19 | 96 | 1014.8 |
| 20260502161606 | 52 | 0 | 0.0 | 0.9 | 0.02 | 0.20 | 0.19 | 96 | 1014.7 |
| 20260502161047 | 52 | 84 | 0.0 | 0.9 | 0.01 | 0.19 | 0.18 | 96 | 1014.8 |
| 20260502160549 | 52 | 0 | 0.0 | 0.9 | 0.01 | 0.19 | 0.18 | 97 | 1014.8 |
| 20260502160106 | 52 | 0 | 0.0 | 0.9 | 0.02 | 0.19 | 0.18 | 97 | 1014.9 |
| 20260502152050 | 52 | 237 | 0.0 | 0.0 | 0.02 | 0.18 | 0.17 | 96 | 1014.5 |
| 20260502151610 | 52 | 0 | 0.0 | 0.9 | 0.03 | 0.18 | 0.17 | 96 | 1014.6 |
| 20260502151050 | 52 | 0 | 0.0 | 0.9 | 0.03 | 0.18 | 0.17 | 97 | 1014.5 |
| 20260502150552 | 52 | 57 | 0.0 | 1.7 | 0.04 | 0.18 | 0.17 | 96 | 1014.6 |
| 20260502150130 | 52 | 0 | 0.0 | 1.7 | 0.03 | 0.17 | 0.16 | 97 | 1014.6 |
| 20260502130553 | 51 | 0 | 0.0 | 0.0 | 0.04 | 0.07 | 0.06 | 95 | 1013.7 |
| 20260502130105 | 51 | 0 | 0.0 | 0.9 | 0.03 | 0.06 | 0.05 | 95 | 1013.7 |
| 20260502123550 | 51 | 0 | 0.0 | 0.0 | 0.02 | 0.04 | 0.03 | 95 | 1013.4 |
| 20260502123057 | 51 | 0 | 0.0 | 0.0 | 0.02 | 0.04 | 0.03 | 94 | 1013.3 |
| 20260502122550 | 51 | 0 | 0.0 | 0.0 | 0.02 | 0.04 | 0.03 | 94 | 1013.2 |
| 20260502122047 | 51 | 0 | 0.0 | 0.0 | 0.02 | 0.04 | 0.03 | 94 | 1013.2 |
| 20260502121559 | 51 | 0 | 0.0 | 0.0 | 0.02 | 0.03 | 0.02 | 94 | 1013.1 |
| 20260502121049 | 51 | 0 | 0.0 | 0.0 | 0.02 | 0.03 | 0.02 | 94 | 1013.1 |
| 20260502120548 | 51 | 0 | 0.0 | 0.0 | 0.02 | 0.03 | 0.02 | 94 | 1013.3 |
| 20260502120112 | 51 | 0 | 0.0 | 0.0 | 0.02 | 0.03 | 0.02 | 93 | 1013.3 |
| 20260502115549 | 52 | 0 | 0.0 | 0.0 | 0.02 | 0.03 | 0.02 | 93 | 1013.3 |
| 20260502115047 | 52 | 0 | 0.0 | 0.0 | 0.01 | 0.02 | 0.01 | 93 | 1013.2 |
| 20260502114557 | 52 | 0 | 0.0 | 0.0 | 0.01 | 0.02 | 0.01 | 92 | 1013.3 |
| 20260502114047 | 52 | 0 | 0.0 | 0.0 | 0.01 | 0.02 | 0.01 | 92 | 1013.3 |
| 20260502113547 | 52 | 0 | 0.0 | 0.0 | 0.01 | 0.02 | 0.01 | 91 | 1013.2 |
| 20260502113114 | 52 | 0 | 0.0 | 0.9 | 0.01 | 0.02 | 0.01 | 91 | 1013.2 |
| 20260502112546 | 52 | 0 | 0.0 | 0.9 | 0.01 | 0.02 | 0.01 | 91 | 1013.2 |
| 20260502112051 | 52 | 0 | 0.0 | 0.9 | 0.01 | 0.02 | 0.01 | 90 | 1013.4 |
| 20260502111604 | 52 | 0 | 0.0 | 0.9 | 0.00 | 0.01 | 0.00 | 90 | 1013.3 |
| 20260502111052 | 52 | 0 | 0.0 | 0.9 | 0.00 | 0.01 | 0.00 | 90 | 1013.4 |
| 20260502110553 | 52 | 0 | 0.0 | 0.9 | 0.00 | 0.01 | 0.00 | 90 | 1013.4 |
| 20260502110103 | 53 | 0 | 0.0 | 0.9 | 0.00 | 0.01 | 0.00 | 90 | 1013.4 |
| 20260502105547 | 53 | 0 | 0.0 | 0.9 | 0.00 | 0.01 | 0.00 | 91 | 1013.2 |
| 20260502105049 | 53 | 115 | 0.0 | 2.6 | 0.00 | 0.01 | 0.00 | 91 | 1013.2 |
| 20260502104556 | 53 | 0 | 0.0 | 2.6 | 0.00 | 0.01 | 0.00 | 91 | 1013.2 |
| 20260502104049 | 53 | 244 | 0.0 | 0.0 | 0.00 | 0.01 | 0.00 | 92 | 1013.2 |
| 20260502103547 | 53 | 0 | 0.0 | 0.0 | 0.00 | 0.01 | 0.00 | 92 | 1013.3 |
| 20260502103112 | 53 | 0 | 0.0 | 0.9 | 0.00 | 0.01 | 0.00 | 92 | 1013.4 |
| 20260502102548 | 53 | 0 | 0.0 | 0.9 | 0.00 | 0.01 | 0.00 | 92 | 1013.4 |
| 20260502102049 | 52 | 0 | 0.0 | 0.9 | 0.00 | 0.01 | 0.00 | 93 | 1013.4 |
| 20260502101606 | 52 | 0 | 0.0 | 0.9 | 0.00 | 0.01 | 0.00 | 94 | 1013.2 |
| 20260502101049 | 52 | 0 | 0.0 | 1.7 | 0.00 | 0.01 | 0.00 | 94 | 1013.3 |
| 20260502100548 | 52 | 0 | 0.0 | 1.7 | 0.00 | 0.01 | 0.00 | 94 | 1013.4 |
| 20260502091050 | 52 | 0 | 0.0 | 0.0 | 0.00 | 0.01 | 0.00 | 96 | 1013.4 |
| 20260502090550 | 52 | 0 | 0.0 | 0.0 | 0.00 | 0.01 | 0.00 | 96 | 1013.2 |
| 20260502090109 | 52 | 0 | 0.0 | 0.0 | 0.00 | 0.01 | 0.00 | 96 | 1013.1 |
| 20260502071051 | 51 | 0 | 0.0 | 0.0 | 0.00 | 0.01 | 0.00 | 96 | 1012.4 |
| 20260502070551 | 51 | 0 | 0.0 | 0.0 | 0.00 | 0.01 | 0.00 | 96 | 1012.4 |
| 20260502070059 | 51 | 0 | 0.0 | 0.0 | 0.00 | 0.01 | 0.00 | 96 | 1012.5 |
| 20260502065553 | 51 | 0 | 0.0 | 0.0 | 0.00 | 0.01 | 0.00 | 96 | 1012.4 |
| 20260502065051 | 51 | 0 | 0.0 | 0.0 | 0.00 | 0.01 | 0.00 | 96 | 1012.5 |
| 20260502064554 | 51 | 0 | 0.0 | 0.0 | 0.00 | 0.01 | 0.00 | 96 | 1012.6 |
| 20260502064051 | 51 | 0 | 0.0 | 0.0 | 0.00 | 0.01 | 0.00 | 96 | 1012.6 |
| 20260502063552 | 51 | 0 | 0.0 | 0.0 | 0.00 | 0.01 | 0.00 | 96 | 1012.6 |
| 20260502063104 | 51 | 0 | 0.0 | 0.0 | 0.00 | 0.01 | 0.00 | 95 | 1012.8 |
| 20260502062550 | 51 | 0 | 0.0 | 0.0 | 0.00 | 0.01 | 0.00 | 96 | 1012.7 |
| 20260502062052 | 51 | 0 | 0.0 | 0.0 | 0.00 | 0.01 | 0.00 | 96 | 1012.8 |
| 20260502061555 | 51 | 0 | 0.0 | 0.0 | 0.00 | 0.01 | 0.00 | 96 | 1012.9 |
| 20260502061048 | 51 | 0 | 0.0 | 0.0 | 0.00 | 0.01 | 0.00 | 95 | 1012.8 |
| 20260502060551 | 51 | 0 | 0.0 | 0.0 | 0.00 | 0.01 | 0.00 | 95 | 1012.8 |
| 20260502060106 | 51 | 0 | 0.0 | 0.0 | 0.00 | 0.01 | 0.00 | 95 | 1012.7 |
| 20260502055552 | 51 | 0 | 0.0 | 0.0 | 0.00 | 0.01 | 0.00 | 95 | 1012.8 |
| 20260502055053 | 51 | 0 | 0.0 | 0.0 | 0.00 | 0.01 | 0.00 | 95 | 1012.8 |
| 20260502054615 | 51 | 0 | 0.0 | 0.0 | 0.00 | 0.01 | 0.00 | 95 | 1012.9 |
| 20260502054049 | 51 | 0 | 0.0 | 0.0 | 0.00 | 0.01 | 0.00 | 95 | 1013.1 |
| 20260502053551 | 51 | 0 | 0.0 | 0.0 | 0.00 | 0.01 | 0.00 | 95 | 1013.1 |
| 20260502053051 | 51 | 0 | 0.0 | 0.0 | 0.00 | 0.01 | 0.00 | 95 | 1013.2 |
| 20260502052550 | 51 | 0 | 0.0 | 0.0 | 0.00 | 0.01 | 0.00 | 95 | 1013.0 |
| 20260502052049 | 52 | 0 | 0.0 | 0.0 | 0.00 | 0.01 | 0.00 | 95 | 1013.3 |
| 20260502051554 | 51 | 0 | 0.0 | 0.0 | 0.00 | 0.01 | 0.00 | 95 | 1013.3 |
| 20260502051052 | 51 | 0 | 0.0 | 0.0 | 0.00 | 0.01 | 0.00 | 95 | 1013.2 |
| 20260502050552 | 51 | 0 | 0.0 | 0.0 | 0.00 | 0.01 | 0.00 | 95 | 1013.4 |
| 20260502050054 | 52 | 0 | 0.0 | 0.0 | 0.00 | 0.01 | 0.00 | 95 | 1013.4 |
| 20260502045554 | 52 | 0 | 0.0 | 0.0 | 0.00 | 0.01 | 0.00 | 95 | 1013.3 |
| 20260502045052 | 52 | 0 | 0.0 | 0.0 | 0.00 | 0.01 | 0.00 | 95 | 1013.3 |
| 20260502044552 | 52 | 0 | 0.0 | 0.0 | 0.00 | 0.01 | 0.00 | 95 | 1013.4 |
| 20260502044052 | 52 | 0 | 0.0 | 0.0 | 0.00 | 0.01 | 0.00 | 95 | 1013.6 |
| 20260502043550 | 52 | 0 | 0.0 | 0.0 | 0.00 | 0.01 | 0.00 | 94 | 1013.6 |
| 20260502043104 | 52 | 0 | 0.0 | 0.0 | 0.00 | 0.01 | 0.00 | 95 | 1013.6 |
| 20260502042552 | 52 | 0 | 0.0 | 0.0 | 0.00 | 0.01 | 0.00 | 95 | 1013.6 |
| 20260502042052 | 52 | 0 | 0.0 | 0.0 | 0.00 | 0.01 | 0.00 | 94 | 1013.5 |
| 20260502041556 | 52 | 0 | 0.0 | 0.0 | 0.00 | 0.01 | 0.00 | 94 | 1013.6 |
| 20260502041052 | 52 | 0 | 0.0 | 0.0 | 0.00 | 0.01 | 0.00 | 94 | 1013.7 |
| 20260502040552 | 52 | 0 | 0.0 | 0.0 | 0.00 | 0.01 | 0.00 | 94 | 1013.7 |
| 20260502040055 | 52 | 0 | 0.0 | 0.0 | 0.00 | 0.01 | 0.00 | 94 | 1013.6 |
| 20260502035552 | 52 | 0 | 0.0 | 0.0 | 0.00 | 0.01 | 0.01 | 94 | 1013.9 |
| 20260502035048 | 52 | 0 | 0.0 | 0.0 | 0.00 | 0.01 | 0.01 | 94 | 1013.7 |
| 20260502034557 | 52 | 0 | 0.0 | 0.0 | 0.00 | 0.01 | 0.01 | 94 | 1013.7 |
| 20260502034052 | 51 | 0 | 0.0 | 0.0 | 0.00 | 0.01 | 0.01 | 93 | 1013.7 |
| 20260502033550 | 52 | 0 | 0.0 | 0.0 | 0.00 | 0.01 | 0.01 | 93 | 1013.8 |
| 20260502033052 | 52 | 0 | 0.0 | 0.0 | 0.00 | 0.01 | 0.01 | 93 | 1013.7 |
| 20260502032551 | 52 | 0 | 0.0 | 0.0 | 0.00 | 0.01 | 0.01 | 93 | 1013.8 |
| 20260502032051 | 52 | 0 | 0.0 | 0.0 | 0.00 | 0.01 | 0.01 | 93 | 1013.8 |
| 20260502031555 | 52 | 0 | 0.0 | 0.0 | 0.00 | 0.01 | 0.01 | 93 | 1013.8 |
| 20260502031051 | 52 | 0 | 0.0 | 0.0 | 0.00 | 0.01 | 0.01 | 93 | 1013.8 |
| 20260502030551 | 52 | 0 | 0.0 | 0.0 | 0.00 | 0.01 | 0.01 | 93 | 1013.9 |
| 20260502030106 | 52 | 0 | 0.0 | 0.0 | 0.00 | 0.01 | 0.01 | 93 | 1014.1 |
| 20260502025548 | 52 | 0 | 0.0 | 0.0 | 0.00 | 0.01 | 0.01 | 93 | 1014.0 |
| 20260502025128 | 52 | 0 | 0.0 | 0.0 | 0.00 | 0.01 | 0.01 | 92 | 1014.1 |
| 20260502024550 | 52 | 0 | 0.0 | 0.0 | 0.00 | 0.01 | 0.01 | 92 | 1014.1 |
| 20260502024051 | 52 | 0 | 0.0 | 0.0 | 0.00 | 0.01 | 0.01 | 92 | 1014.1 |
| 20260502023548 | 52 | 0 | 0.0 | 0.0 | 0.00 | 0.01 | 0.01 | 91 | 1014.1 |
| 20260502023057 | 52 | 0 | 0.0 | 0.0 | 0.00 | 0.01 | 0.01 | 91 | 1014.1 |
| 20260502022550 | 52 | 0 | 0.0 | 0.0 | 0.00 | 0.01 | 0.01 | 91 | 1014.3 |